Time,TemperatureF,DewpointF,PressureIn,WindDirection,WindDirectionDegrees,WindSpeedMPH,WindSpeedGustMPH,Humidity,HourlyPrecipIn,Conditions,Clouds,dailyrainin,SoftwareType,DateUTC
2013-10-22 00:02:00,47.7,38.3,30.21,SW,221,7.0,7.0,70,0.00,,,0.00,meteohub,2013-10-22 05:02:00,
2013-10-22 00:07:00,47.7,38.7,30.21,WSW,239,4.0,7.0,71,0.00,,,0.00,meteohub,2013-10-22 05:07:00,
2013-10-22 00:12:00,47.5,38.5,30.21,SW,221,5.0,7.0,71,0.00,,,0.00,meteohub,2013-10-22 05:12:00,
2013-10-22 00:17:00,47.5,38.1,30.21,SW,236,6.0,9.0,70,0.00,,,0.00,meteohub,2013-10-22 05:17:00,
2013-10-22 00:22:00,47.7,38.3,30.21,SSW,208,4.0,9.0,70,0.00,,,0.00,meteohub,2013-10-22 05:22:00,
2013-10-22 00:27:00,47.7,38.3,30.21,SW,218,4.0,8.0,70,0.00,,,0.00,meteohub,2013-10-22 05:27:00,
2013-10-22 00:33:00,47.7,38.3,30.21,SW,217,4.0,8.0,70,0.00,,,0.00,meteohub,2013-10-22 05:33:00,
2013-10-22 00:38:00,47.7,38.3,30.21,WSW,245,5.0,8.0,70,0.00,,,0.00,meteohub,2013-10-22 05:38:00,
2013-10-22 00:43:00,47.7,38.3,30.21,SW,224,5.0,7.0,70,0.00,,,0.00,meteohub,2013-10-22 05:43:00,
2013-10-22 00:48:00,47.7,38.3,30.20,SW,225,4.0,6.0,70,0.00,,,0.00,meteohub,2013-10-22 05:48:00,
2013-10-22 00:53:00,47.7,38.3,30.20,WSW,240,7.0,7.0,70,0.00,,,0.00,meteohub,2013-10-22 05:53:00,
2013-10-22 00:58:00,47.7,38.7,30.20,WSW,242,5.0,7.0,71,0.00,,,0.00,meteohub,2013-10-22 05:58:00,
2013-10-22 01:03:00,47.8,38.8,30.20,SW,224,5.0,7.0,71,0.00,,,0.00,meteohub,2013-10-22 06:03:00,
2013-10-22 01:08:00,47.8,38.8,30.19,WSW,246,4.0,8.0,71,0.00,,,0.00,meteohub,2013-10-22 06:08:00,
2013-10-22 01:14:00,47.8,38.8,30.20,SSW,205,4.0,8.0,71,0.00,,,0.00,meteohub,2013-10-22 06:14:00,
2013-10-22 01:19:00,47.8,38.8,30.20,SW,226,4.0,8.0,71,0.00,,,0.00,meteohub,2013-10-22 06:19:00,
2013-10-22 01:24:00,47.7,38.7,30.20,SW,228,4.0,8.0,71,0.00,,,0.00,meteohub,2013-10-22 06:24:00,
2013-10-22 01:29:00,47.7,38.7,30.20,SSE,155,3.0,8.0,71,0.00,,,0.00,meteohub,2013-10-22 06:29:00,
2013-10-22 01:34:00,47.7,38.7,30.20,SW,217,3.0,8.0,71,0.00,,,0.00,meteohub,2013-10-22 06:34:00,
2013-10-22 01:39:00,47.5,38.5,30.19,SW,221,2.0,10.0,71,0.00,,,0.00,meteohub,2013-10-22 06:39:00,
2013-10-22 01:44:00,47.3,38.7,30.19,SW,225,4.0,10.0,72,0.00,,,0.00,meteohub,2013-10-22 06:44:00,
2013-10-22 01:49:00,47.3,38.7,30.19,SW,214,7.0,10.0,72,0.00,,,0.00,meteohub,2013-10-22 06:49:00,
2013-10-22 01:54:00,47.1,38.5,30.19,SW,228,4.0,10.0,72,0.00,,,0.00,meteohub,2013-10-22 06:54:00,
2013-10-22 01:59:00,46.9,38.7,30.19,SSW,210,4.0,10.0,73,0.00,,,0.00,meteohub,2013-10-22 06:59:00,
2013-10-22 02:04:00,46.9,38.7,30.19,WSW,243,7.0,10.0,73,0.00,,,0.00,meteohub,2013-10-22 07:04:00,
2013-10-22 02:09:00,46.8,38.8,30.19,SW,233,4.0,9.0,74,0.00,,,0.00,meteohub,2013-10-22 07:09:00,
2013-10-22 02:14:00,46.8,38.8,30.19,SW,233,8.0,9.0,74,0.00,,,0.00,meteohub,2013-10-22 07:14:00,
2013-10-22 02:19:00,46.8,38.8,30.19,WSW,246,6.0,10.0,74,0.00,,,0.00,meteohub,2013-10-22 07:19:00,
2013-10-22 02:24:00,46.6,38.7,30.19,SW,228,7.0,10.0,74,0.00,,,0.00,meteohub,2013-10-22 07:24:00,
2013-10-22 02:29:00,46.6,38.7,30.19,SW,236,2.0,10.0,74,0.00,,,0.00,meteohub,2013-10-22 07:29:00,
2013-10-22 02:34:00,46.6,39.0,30.19,SW,221,5.0,9.0,75,0.00,,,0.00,meteohub,2013-10-22 07:34:00,
2013-10-22 02:39:00,46.4,38.8,30.19,South,183,0.0,9.0,75,0.00,,,0.00,meteohub,2013-10-22 07:39:00,
2013-10-22 02:44:00,46.2,39.0,30.19,SW,224,0.0,9.0,76,0.00,,,0.00,meteohub,2013-10-22 07:44:00,
2013-10-22 02:49:00,46.0,38.8,30.19,SW,231,1.0,9.0,76,0.00,,,0.00,meteohub,2013-10-22 07:49:00,
2013-10-22 02:54:00,45.9,38.7,30.19,SW,228,0.0,8.0,76,0.00,,,0.00,meteohub,2013-10-22 07:54:00,
2013-10-22 02:59:00,45.9,39.0,30.19,SW,221,2.0,8.0,77,0.00,,,0.00,meteohub,2013-10-22 07:59:00,
2013-10-22 03:04:00,45.9,39.0,30.19,SW,217,3.0,5.0,77,0.00,,,0.00,meteohub,2013-10-22 08:04:00,
2013-10-22 03:09:00,46.0,38.8,30.18,SW,221,5.0,5.0,76,0.00,,,0.00,meteohub,2013-10-22 08:09:00,
2013-10-22 03:14:00,46.0,38.8,30.18,SW,233,4.0,8.0,76,0.00,,,0.00,meteohub,2013-10-22 08:14:00,
2013-10-22 03:19:00,46.0,38.8,30.19,SSW,211,2.0,8.0,76,0.00,,,0.00,meteohub,2013-10-22 08:19:00,
2013-10-22 03:24:00,46.2,39.0,30.18,SW,225,3.0,8.0,76,0.00,,,0.00,meteohub,2013-10-22 08:24:00,
2013-10-22 03:29:00,46.6,39.4,30.18,SW,215,0.0,8.0,76,0.00,,,0.00,meteohub,2013-10-22 08:29:00,
2013-10-22 03:34:00,46.6,39.7,30.18,SW,218,3.0,6.0,77,0.00,,,0.00,meteohub,2013-10-22 08:34:00,
2013-10-22 03:39:00,46.8,39.6,30.18,SW,221,5.0,6.0,76,0.00,,,0.00,meteohub,2013-10-22 08:39:00,
2013-10-22 03:44:00,46.9,39.7,30.18,SSW,195,4.0,5.0,76,0.00,,,0.00,meteohub,2013-10-22 08:44:00,
2013-10-22 03:49:00,47.1,39.9,30.17,South,181,3.0,6.0,76,0.00,,,0.00,meteohub,2013-10-22 08:49:00,
2013-10-22 03:54:00,47.3,40.1,30.17,SW,228,5.0,7.0,76,0.00,,,0.00,meteohub,2013-10-22 08:54:00,
2013-10-22 03:59:00,47.5,39.9,30.17,SSW,210,2.0,7.0,75,0.00,,,0.00,meteohub,2013-10-22 08:59:00,
2013-10-22 04:04:00,47.7,40.1,30.17,SSW,201,2.0,7.0,75,0.00,,,0.00,meteohub,2013-10-22 09:04:00,
2013-10-22 04:09:00,47.8,39.9,30.17,SW,225,3.0,7.0,74,0.00,,,0.00,meteohub,2013-10-22 09:09:00,
2013-10-22 04:14:00,48.0,40.1,30.17,West,263,0.0,7.0,74,0.00,,,0.00,meteohub,2013-10-22 09:14:00,
2013-10-22 04:19:00,48.2,40.3,30.17,WSW,239,0.0,7.0,74,0.00,,,0.00,meteohub,2013-10-22 09:19:00,
2013-10-22 04:24:00,48.4,40.1,30.17,SW,224,2.0,5.0,73,0.00,,,0.00,meteohub,2013-10-22 09:24:00,
2013-10-22 04:29:00,48.6,40.3,30.17,SW,224,3.0,4.0,73,0.00,,,0.00,meteohub,2013-10-22 09:29:00,
2013-10-22 04:34:00,48.7,40.1,30.17,SW,231,4.0,5.0,72,0.00,,,0.00,meteohub,2013-10-22 09:34:00,
2013-10-22 04:39:00,48.9,40.3,30.17,SW,222,5.0,6.0,72,0.00,,,0.00,meteohub,2013-10-22 09:39:00,
2013-10-22 04:44:00,48.9,40.3,30.17,SW,233,5.0,7.0,72,0.00,,,0.00,meteohub,2013-10-22 09:44:00,
2013-10-22 04:49:00,49.3,40.3,30.17,WSW,239,4.0,7.0,71,0.00,,,0.00,meteohub,2013-10-22 09:49:00,
2013-10-22 04:54:00,49.3,40.3,30.17,SW,236,4.0,7.0,71,0.00,,,0.00,meteohub,2013-10-22 09:54:00,
2013-10-22 04:59:00,49.5,40.5,30.16,SW,228,5.0,7.0,71,0.00,,,0.00,meteohub,2013-10-22 09:59:00,
2013-10-22 05:04:00,49.5,40.1,30.16,WSW,245,4.0,5.0,70,0.00,,,0.00,meteohub,2013-10-22 10:04:00,
2013-10-22 05:10:00,49.6,40.3,30.16,SSW,212,1.0,5.0,70,0.00,,,0.00,meteohub,2013-10-22 10:10:00,
2013-10-22 05:15:00,49.6,40.3,30.16,SW,217,1.0,6.0,70,0.00,,,0.00,meteohub,2013-10-22 10:15:00,
2013-10-22 05:20:00,49.8,40.5,30.16,SW,225,2.0,6.0,70,0.00,,,0.00,meteohub,2013-10-22 10:20:00,
2013-10-22 05:25:00,49.8,40.1,30.16,SW,221,2.0,4.0,69,0.00,,,0.00,meteohub,2013-10-22 10:25:00,
2013-10-22 05:30:00,50.0,40.3,30.16,SW,228,2.0,4.0,69,0.00,,,0.00,meteohub,2013-10-22 10:30:00,
2013-10-22 05:35:00,50.2,40.1,30.16,SW,231,4.0,5.0,68,0.00,,,0.00,meteohub,2013-10-22 10:35:00,
2013-10-22 05:40:00,50.4,39.7,30.15,WSW,238,6.0,6.0,67,0.00,,,0.00,meteohub,2013-10-22 10:40:00,
2013-10-22 05:45:00,50.4,39.7,30.16,SW,218,2.0,7.0,67,0.00,,,0.00,meteohub,2013-10-22 10:45:00,
2013-10-22 05:50:00,50.4,39.7,30.16,SW,233,3.0,7.0,67,0.00,,,0.00,meteohub,2013-10-22 10:50:00,
2013-10-22 05:55:00,50.4,39.4,30.16,SW,217,2.0,7.0,66,0.00,,,0.00,meteohub,2013-10-22 10:55:00,
2013-10-22 06:00:00,50.2,39.2,30.16,WSW,248,5.0,7.0,66,0.00,,,0.00,meteohub,2013-10-22 11:00:00,
2013-10-22 06:05:00,50.2,39.6,30.16,WSW,239,3.0,6.0,67,0.00,,,0.00,meteohub,2013-10-22 11:05:00,
2013-10-22 06:10:00,49.8,39.4,30.16,WSW,252,4.0,6.0,67,0.00,,,0.00,meteohub,2013-10-22 11:10:00,
2013-10-22 06:15:00,49.6,39.2,30.16,WSW,246,1.0,6.0,67,0.00,,,0.00,meteohub,2013-10-22 11:15:00,
2013-10-22 06:20:00,49.6,39.6,30.16,SW,217,4.0,5.0,68,0.00,,,0.00,meteohub,2013-10-22 11:20:00,
2013-10-22 06:25:00,49.5,39.4,30.16,West,260,2.0,5.0,68,0.00,,,0.00,meteohub,2013-10-22 11:25:00,
2013-10-22 06:30:00,49.3,39.2,30.16,WSW,240,4.0,5.0,68,0.00,,,0.00,meteohub,2013-10-22 11:30:00,
2013-10-22 06:35:00,49.1,39.4,30.17,WSW,246,3.0,5.0,69,0.00,,,0.00,meteohub,2013-10-22 11:35:00,
2013-10-22 06:40:00,48.9,39.2,30.17,WSW,255,0.0,5.0,69,0.00,,,0.00,meteohub,2013-10-22 11:40:00,
2013-10-22 06:45:00,48.7,39.0,30.16,SW,233,6.0,6.0,69,0.00,,,0.00,meteohub,2013-10-22 11:45:00,
2013-10-22 06:50:00,48.7,39.0,30.16,SW,231,4.0,7.0,69,0.00,,,0.00,meteohub,2013-10-22 11:50:00,
2013-10-22 06:55:00,48.7,39.4,30.16,SW,236,5.0,7.0,70,0.00,,,0.00,meteohub,2013-10-22 11:55:00,
2013-10-22 07:00:00,48.6,39.2,30.17,SW,226,3.0,7.0,70,0.00,,,0.00,meteohub,2013-10-22 12:00:00,
2013-10-22 07:05:00,48.4,39.4,30.17,SW,236,1.0,6.0,71,0.00,,,0.00,meteohub,2013-10-22 12:05:00,
2013-10-22 07:10:00,48.2,39.2,30.17,SW,225,3.0,6.0,71,0.00,,,0.00,meteohub,2013-10-22 12:10:00,
2013-10-22 07:15:00,48.0,39.0,30.16,SW,226,4.0,5.0,71,0.00,,,0.00,meteohub,2013-10-22 12:15:00,
2013-10-22 07:20:00,47.8,39.2,30.17,SW,226,6.0,6.0,72,0.00,,,0.00,meteohub,2013-10-22 12:20:00,
2013-10-22 07:25:00,47.7,39.0,30.17,SW,228,4.0,6.0,72,0.00,,,0.00,meteohub,2013-10-22 12:25:00,
2013-10-22 07:30:00,47.7,39.0,30.17,WSW,243,5.0,6.0,72,0.00,,,0.00,meteohub,2013-10-22 12:30:00,
2013-10-22 07:35:00,47.5,39.2,30.17,West,266,4.0,7.0,73,0.00,,,0.00,meteohub,2013-10-22 12:35:00,
2013-10-22 07:40:00,47.5,39.2,30.17,WSW,246,3.0,7.0,73,0.00,,,0.00,meteohub,2013-10-22 12:40:00,
2013-10-22 07:45:00,47.3,39.4,30.17,WSW,255,4.0,6.0,74,0.00,,,0.00,meteohub,2013-10-22 12:45:00,
2013-10-22 07:50:00,47.1,39.2,30.17,WSW,252,4.0,6.0,74,0.00,,,0.00,meteohub,2013-10-22 12:50:00,
2013-10-22 07:55:00,47.1,39.2,30.17,WSW,243,3.0,6.0,74,0.00,,,0.00,meteohub,2013-10-22 12:55:00,
2013-10-22 08:00:00,47.1,39.6,30.17,WSW,238,3.0,4.0,75,0.00,,,0.00,meteohub,2013-10-22 13:00:00,
2013-10-22 08:06:00,47.1,39.6,30.17,WSW,242,2.0,4.0,75,0.00,,,0.00,meteohub,2013-10-22 13:06:00,
2013-10-22 08:11:00,47.5,39.9,30.17,WSW,257,2.0,4.0,75,0.00,,,0.00,meteohub,2013-10-22 13:11:00,
2013-10-22 08:16:00,47.7,40.1,30.18,WSW,246,1.0,4.0,75,0.00,,,0.00,meteohub,2013-10-22 13:16:00,
2013-10-22 08:21:00,47.8,39.9,30.18,WSW,250,2.0,2.0,74,0.00,,,0.00,meteohub,2013-10-22 13:21:00,
2013-10-22 08:26:00,48.0,40.1,30.18,WSW,257,1.0,2.0,74,0.00,,,0.00,meteohub,2013-10-22 13:26:00,
2013-10-22 08:31:00,48.4,40.1,30.18,WSW,255,2.0,3.0,73,0.00,,,0.00,meteohub,2013-10-22 13:31:00,
2013-10-22 08:36:00,48.7,40.5,30.19,West,280,3.0,4.0,73,0.00,,,0.00,meteohub,2013-10-22 13:36:00,
2013-10-22 08:41:00,49.1,40.5,30.19,West,278,5.0,5.0,72,0.00,,,0.00,meteohub,2013-10-22 13:41:00,
2013-10-22 08:46:00,49.6,41.0,30.19,WNW,285,3.0,7.0,72,0.00,,,0.00,meteohub,2013-10-22 13:46:00,
2013-10-22 08:51:00,50.2,41.2,30.19,WNW,285,6.0,7.0,71,0.00,,,0.00,meteohub,2013-10-22 13:51:00,
2013-10-22 08:56:00,50.7,41.4,30.19,WNW,285,7.0,7.0,70,0.00,,,0.00,meteohub,2013-10-22 13:56:00,
2013-10-22 09:01:00,51.4,41.2,30.19,WNW,289,5.0,9.0,68,0.00,,,0.00,meteohub,2013-10-22 14:01:00,
2013-10-22 09:06:00,52.2,41.5,30.18,West,260,2.0,9.0,67,0.00,,,0.00,meteohub,2013-10-22 14:06:00,
2013-10-22 09:11:00,52.9,42.3,30.19,NW,311,4.0,9.0,67,0.00,,,0.00,meteohub,2013-10-22 14:11:00,
2013-10-22 09:16:00,53.2,42.3,30.19,NW,306,7.0,8.0,66,0.00,,,0.00,meteohub,2013-10-22 14:16:00,
2013-10-22 09:21:00,54.0,42.4,30.19,NW,305,4.0,10.0,65,0.00,,,0.00,meteohub,2013-10-22 14:21:00,
2013-10-22 09:26:00,54.5,42.6,30.19,NW,316,1.0,11.0,64,0.00,,,0.00,meteohub,2013-10-22 14:26:00,
2013-10-22 09:31:00,55.2,42.8,30.19,WNW,297,11.0,11.0,63,0.00,,,0.00,meteohub,2013-10-22 14:31:00,
2013-10-22 09:36:00,55.9,42.6,30.19,WNW,297,6.0,12.0,61,0.00,,,0.00,meteohub,2013-10-22 14:36:00,
2013-10-22 09:41:00,56.5,42.8,30.20,NW,307,6.0,12.0,60,0.00,,,0.00,meteohub,2013-10-22 14:41:00,
2013-10-22 09:46:00,56.8,43.2,30.19,WNW,295,12.0,12.0,60,0.00,,,0.00,meteohub,2013-10-22 14:46:00,
2013-10-22 09:51:00,57.4,42.8,30.20,WNW,301,11.0,13.0,58,0.00,,,0.00,meteohub,2013-10-22 14:51:00,
2013-10-22 09:56:00,57.6,43.3,30.19,NW,307,4.0,15.0,59,0.00,,,0.00,meteohub,2013-10-22 14:56:00,
2013-10-22 10:01:00,57.7,43.0,30.19,WNW,293,9.0,15.0,58,0.00,,,0.00,meteohub,2013-10-22 15:01:00,
2013-10-22 10:06:00,57.9,42.8,30.20,WNW,287,13.0,15.0,57,0.00,,,0.00,meteohub,2013-10-22 15:06:00,
2013-10-22 10:11:00,57.9,42.8,30.20,West,279,13.0,21.0,57,0.00,,,0.00,meteohub,2013-10-22 15:11:00,
2013-10-22 10:16:00,57.9,42.8,30.20,NW,305,11.0,21.0,57,0.00,,,0.00,meteohub,2013-10-22 15:16:00,
2013-10-22 10:21:00,58.1,43.0,30.21,NW,304,7.0,21.0,57,0.00,,,0.00,meteohub,2013-10-22 15:21:00,
2013-10-22 10:26:00,58.5,43.3,30.20,NW,324,8.0,16.0,57,0.00,,,0.00,meteohub,2013-10-22 15:26:00,
2013-10-22 10:31:00,58.6,43.5,30.20,WNW,287,4.0,16.0,57,0.00,,,0.00,meteohub,2013-10-22 15:31:00,
2013-10-22 10:36:00,59.2,43.5,30.20,NW,311,7.0,16.0,56,0.00,,,0.00,meteohub,2013-10-22 15:36:00,
2013-10-22 10:41:00,59.4,43.2,30.20,WNW,300,10.0,15.0,55,0.00,,,0.00,meteohub,2013-10-22 15:41:00,
2013-10-22 10:46:00,59.7,43.5,30.20,NNW,347,8.0,15.0,55,0.00,,,0.00,meteohub,2013-10-22 15:46:00,
2013-10-22 10:51:00,60.1,43.9,30.20,WNW,297,10.0,14.0,55,0.00,,,0.00,meteohub,2013-10-22 15:51:00,
2013-10-22 10:56:00,60.3,43.5,30.20,WNW,297,11.0,14.0,54,0.00,,,0.00,meteohub,2013-10-22 15:56:00,
2013-10-22 11:01:00,60.6,43.9,30.20,North,354,4.0,15.0,54,0.00,,,0.00,meteohub,2013-10-22 16:01:00,
2013-10-22 11:06:00,61.0,43.7,30.20,WNW,298,12.0,15.0,53,0.00,,,0.00,meteohub,2013-10-22 16:06:00,
2013-10-22 11:11:00,61.2,43.9,30.20,NW,309,12.0,15.0,53,0.00,,,0.00,meteohub,2013-10-22 16:11:00,
2013-10-22 11:16:00,61.3,44.1,30.20,WNW,290,5.0,15.0,53,0.00,,,0.00,meteohub,2013-10-22 16:16:00,
2013-10-22 11:21:00,61.5,43.7,30.20,NNW,329,6.0,15.0,52,0.00,,,0.00,meteohub,2013-10-22 16:21:00,
2013-10-22 11:26:00,62.1,44.2,30.20,NW,312,12.0,14.0,52,0.00,,,0.00,meteohub,2013-10-22 16:26:00,
2013-10-22 11:31:00,62.4,43.5,30.20,NW,319,9.0,14.0,50,0.00,,,0.00,meteohub,2013-10-22 16:31:00,
2013-10-22 11:36:00,62.8,44.4,30.20,NW,318,3.0,14.0,51,0.00,,,0.00,meteohub,2013-10-22 16:36:00,
2013-10-22 11:41:00,63.1,43.7,30.20,NW,307,8.0,16.0,49,0.00,,,0.00,meteohub,2013-10-22 16:41:00,
2013-10-22 11:46:00,63.3,43.3,30.20,NW,304,10.0,20.0,48,0.00,,,0.00,meteohub,2013-10-22 16:46:00,
2013-10-22 11:51:00,63.7,43.2,30.20,NW,326,14.0,20.0,47,0.00,,,0.00,meteohub,2013-10-22 16:51:00,
2013-10-22 11:56:00,63.9,43.2,30.21,NW,304,16.0,20.0,47,0.00,,,0.00,meteohub,2013-10-22 16:56:00,
2013-10-22 12:01:00,64.2,43.0,30.20,WNW,297,11.0,20.0,46,0.00,,,0.00,meteohub,2013-10-22 17:01:00,
2013-10-22 12:06:00,64.6,42.8,30.20,WNW,293,22.0,22.0,45,0.00,,,0.00,meteohub,2013-10-22 17:06:00,
2013-10-22 12:11:00,64.6,42.8,30.20,NW,315,7.0,24.0,45,0.00,,,0.00,meteohub,2013-10-22 17:11:00,
2013-10-22 12:16:00,64.6,42.8,30.20,NW,309,16.0,24.0,45,0.00,,,0.00,meteohub,2013-10-22 17:16:00,
2013-10-22 12:21:00,64.6,42.3,30.20,WNW,295,9.0,24.0,44,0.00,,,0.00,meteohub,2013-10-22 17:21:00,
2013-10-22 12:26:00,65.1,42.6,30.20,WNW,295,14.0,24.0,44,0.00,,,0.00,meteohub,2013-10-22 17:26:00,
2013-10-22 12:31:00,65.1,42.6,30.19,NW,314,5.0,23.0,44,0.00,,,0.00,meteohub,2013-10-22 17:31:00,
2013-10-22 12:36:00,65.5,42.4,30.19,NNW,335,13.0,21.0,43,0.00,,,0.00,meteohub,2013-10-22 17:36:00,
2013-10-22 12:41:00,65.7,41.9,30.20,NW,325,10.0,19.0,42,0.00,,,0.00,meteohub,2013-10-22 17:41:00,
2013-10-22 12:46:00,65.8,42.1,30.19,WNW,297,11.0,20.0,42,0.00,,,0.00,meteohub,2013-10-22 17:46:00,
2013-10-22 12:51:00,66.0,41.7,30.19,West,276,13.0,25.0,41,0.00,,,0.00,meteohub,2013-10-22 17:51:00,
2013-10-22 12:56:00,66.0,41.7,30.19,NNE,20,9.0,25.0,41,0.00,,,0.00,meteohub,2013-10-22 17:56:00,
2013-10-22 13:01:00,66.4,41.9,30.18,WNW,291,7.0,21.0,41,0.00,,,0.00,meteohub,2013-10-22 18:01:00,
2013-10-22 13:06:00,66.7,43.0,30.19,NW,304,11.0,21.0,42,0.00,,,0.00,meteohub,2013-10-22 18:06:00,
2013-10-22 13:11:00,66.9,41.9,30.18,NW,322,15.0,18.0,40,0.00,,,0.00,meteohub,2013-10-22 18:11:00,
2013-10-22 13:17:00,66.6,41.5,30.18,WNW,301,14.0,18.0,40,0.00,,,0.00,meteohub,2013-10-22 18:17:00,
2013-10-22 13:22:00,67.1,41.9,30.18,North,352,12.0,20.0,40,0.00,,,0.00,meteohub,2013-10-22 18:22:00,
2013-10-22 13:27:00,67.3,41.5,30.18,NNW,334,10.0,20.0,39,0.00,,,0.00,meteohub,2013-10-22 18:27:00,
2013-10-22 13:32:00,67.3,41.5,30.18,West,277,20.0,20.0,39,0.00,,,0.00,meteohub,2013-10-22 18:32:00,
2013-10-22 13:37:00,67.5,41.0,30.17,NNE,13,6.0,20.0,38,0.00,,,0.00,meteohub,2013-10-22 18:37:00,
2013-10-22 13:42:00,67.6,40.5,30.17,WNW,291,13.0,20.0,37,0.00,,,0.00,meteohub,2013-10-22 18:42:00,
2013-10-22 13:47:00,67.5,41.0,30.17,WNW,301,16.0,22.0,38,0.00,,,0.00,meteohub,2013-10-22 18:47:00,
2013-10-22 13:52:00,67.5,41.0,30.17,WNW,288,15.0,22.0,38,0.00,,,0.00,meteohub,2013-10-22 18:52:00,
2013-10-22 13:57:00,67.5,41.0,30.17,NW,304,9.0,23.0,38,0.00,,,0.00,meteohub,2013-10-22 18:57:00,
2013-10-22 14:02:00,67.5,41.0,30.16,NW,308,14.0,23.0,38,0.00,,,0.00,meteohub,2013-10-22 19:02:00,
2013-10-22 14:07:00,67.6,41.2,30.16,WNW,298,8.0,23.0,38,0.00,,,0.00,meteohub,2013-10-22 19:07:00,
2013-10-22 14:12:00,67.5,41.0,30.17,WNW,301,9.0,21.0,38,0.00,,,0.00,meteohub,2013-10-22 19:12:00,
2013-10-22 14:17:00,67.5,41.0,30.16,WNW,291,20.0,23.0,38,0.00,,,0.00,meteohub,2013-10-22 19:17:00,
2013-10-22 14:22:00,67.8,41.4,30.16,WNW,295,14.0,26.0,38,0.00,,,0.00,meteohub,2013-10-22 19:22:00,
2013-10-22 14:27:00,67.8,40.6,30.16,WNW,291,19.0,26.0,37,0.00,,,0.00,meteohub,2013-10-22 19:27:00,
2013-10-22 14:32:00,68.4,41.0,30.16,WNW,284,18.0,26.0,37,0.00,,,0.00,meteohub,2013-10-22 19:32:00,
2013-10-22 14:37:00,68.0,40.8,30.16,WNW,292,11.0,26.0,37,0.00,,,0.00,meteohub,2013-10-22 19:37:00,
2013-10-22 14:42:00,68.4,41.7,30.15,WSW,248,22.0,26.0,38,0.00,,,0.00,meteohub,2013-10-22 19:42:00,
2013-10-22 14:47:00,68.0,40.8,30.15,WNW,285,20.0,26.0,37,0.00,,,0.00,meteohub,2013-10-22 19:47:00,
2013-10-22 14:52:00,67.6,40.5,30.15,WNW,285,11.0,28.0,37,0.00,,,0.00,meteohub,2013-10-22 19:52:00,
2013-10-22 14:57:00,68.0,40.8,30.15,WNW,287,17.0,28.0,37,0.00,,,0.00,meteohub,2013-10-22 19:57:00,
2013-10-22 15:02:00,67.8,40.6,30.15,WNW,283,20.0,28.0,37,0.00,,,0.00,meteohub,2013-10-22 20:02:00,
2013-10-22 15:07:00,68.0,40.8,30.15,NW,306,14.0,31.0,37,0.00,,,0.00,meteohub,2013-10-22 20:07:00,
2013-10-22 15:12:00,68.4,41.7,30.15,West,269,14.0,31.0,38,0.00,,,0.00,meteohub,2013-10-22 20:12:00,
2013-10-22 15:17:00,68.5,41.9,30.15,NW,304,9.0,24.0,38,0.00,,,0.00,meteohub,2013-10-22 20:17:00,
2013-10-22 15:22:00,68.7,42.1,30.16,WNW,301,3.0,23.0,38,0.00,,,0.00,meteohub,2013-10-22 20:22:00,
2013-10-22 15:27:00,69.1,41.7,30.16,NW,306,11.0,23.0,37,0.00,,,0.00,meteohub,2013-10-22 20:27:00,
2013-10-22 15:32:00,68.9,40.8,30.16,NW,306,19.0,26.0,36,0.00,,,0.00,meteohub,2013-10-22 20:32:00,
2013-10-22 15:37:00,68.4,41.7,30.16,WNW,301,7.0,27.0,38,0.00,,,0.00,meteohub,2013-10-22 20:37:00,
2013-10-22 15:42:00,68.4,41.0,30.16,WNW,293,17.0,27.0,37,0.00,,,0.00,meteohub,2013-10-22 20:42:00,
2013-10-22 15:47:00,68.5,41.9,30.16,West,264,17.0,27.0,38,0.00,,,0.00,meteohub,2013-10-22 20:47:00,
2013-10-22 15:52:00,68.7,42.1,30.16,WSW,250,9.0,26.0,38,0.00,,,0.00,meteohub,2013-10-22 20:52:00,
2013-10-22 15:57:00,68.7,41.4,30.16,NW,314,17.0,25.0,37,0.00,,,0.00,meteohub,2013-10-22 20:57:00,
2013-10-22 16:02:00,69.1,42.4,30.16,WNW,283,13.0,25.0,38,0.00,,,0.00,meteohub,2013-10-22 21:02:00,
2013-10-22 16:07:00,68.7,42.1,30.16,NNW,343,16.0,25.0,38,0.00,,,0.00,meteohub,2013-10-22 21:07:00,
2013-10-22 16:12:00,68.7,41.4,30.16,NW,304,21.0,25.0,37,0.00,,,0.00,meteohub,2013-10-22 21:12:00,
2013-10-22 16:17:00,69.1,41.7,30.16,NW,309,9.0,25.0,37,0.00,,,0.00,meteohub,2013-10-22 21:17:00,
2013-10-22 16:22:00,69.1,41.7,30.16,NW,310,11.0,21.0,37,0.00,,,0.00,meteohub,2013-10-22 21:22:00,
2013-10-22 16:27:00,68.5,41.2,30.16,NW,319,11.0,21.0,37,0.00,,,0.00,meteohub,2013-10-22 21:27:00,
2013-10-22 16:32:00,68.2,42.3,30.16,NW,304,6.0,21.0,39,0.00,,,0.00,meteohub,2013-10-22 21:32:00,
2013-10-22 16:37:00,68.2,41.5,30.16,NW,311,10.0,21.0,38,0.00,,,0.00,meteohub,2013-10-22 21:37:00,
2013-10-22 16:42:00,68.4,41.0,30.16,WNW,302,10.0,27.0,37,0.00,,,0.00,meteohub,2013-10-22 21:42:00,
2013-10-22 16:47:00,68.5,41.9,30.17,NW,308,18.0,27.0,38,0.00,,,0.00,meteohub,2013-10-22 21:47:00,
2013-10-22 16:52:00,68.4,41.7,30.17,NW,307,9.0,27.0,38,0.00,,,0.00,meteohub,2013-10-22 21:52:00,
2013-10-22 16:57:00,68.2,41.0,30.16,WNW,301,17.0,23.0,37,0.00,,,0.00,meteohub,2013-10-22 21:57:00,
2013-10-22 17:02:00,68.2,41.0,30.16,WNW,301,12.0,22.0,37,0.00,,,0.00,meteohub,2013-10-22 22:02:00,
2013-10-22 17:07:00,68.4,41.0,30.16,NW,311,14.0,23.0,37,0.00,,,0.00,meteohub,2013-10-22 22:07:00,
2013-10-22 17:12:00,68.4,41.0,30.16,WSW,246,16.0,23.0,37,0.00,,,0.00,meteohub,2013-10-22 22:12:00,
2013-10-22 17:17:00,68.4,40.3,30.16,NW,311,16.0,23.0,36,0.00,,,0.00,meteohub,2013-10-22 22:17:00,
2013-10-22 17:22:00,68.2,40.3,30.16,WNW,293,10.0,21.0,36,0.00,,,0.00,meteohub,2013-10-22 22:22:00,
2013-10-22 17:27:00,68.0,40.1,30.16,NW,304,8.0,21.0,36,0.00,,,0.00,meteohub,2013-10-22 22:27:00,
2013-10-22 17:32:00,67.8,40.6,30.16,NW,304,11.0,21.0,37,0.00,,,0.00,meteohub,2013-10-22 22:32:00,
2013-10-22 17:37:00,67.8,40.6,30.16,WNW,285,8.0,19.0,37,0.00,,,0.00,meteohub,2013-10-22 22:37:00,
2013-10-22 17:42:00,67.8,40.6,30.16,WNW,297,7.0,19.0,37,0.00,,,0.00,meteohub,2013-10-22 22:42:00,
2013-10-22 17:47:00,67.6,40.5,30.16,WNW,297,10.0,14.0,37,0.00,,,0.00,meteohub,2013-10-22 22:47:00,
2013-10-22 17:52:00,67.5,40.3,30.16,NW,307,6.0,16.0,37,0.00,,,0.00,meteohub,2013-10-22 22:52:00,
2013-10-22 17:57:00,67.3,40.8,30.16,NW,315,7.0,16.0,38,0.00,,,0.00,meteohub,2013-10-22 22:57:00,
2013-10-22 18:02:00,67.3,40.8,30.16,WNW,292,4.0,16.0,38,0.00,,,0.00,meteohub,2013-10-22 23:02:00,
2013-10-22 18:07:00,67.1,40.6,30.16,NW,308,5.0,14.0,38,0.00,,,0.00,meteohub,2013-10-22 23:07:00,
2013-10-22 18:12:00,66.9,40.5,30.16,NW,309,3.0,14.0,38,0.00,,,0.00,meteohub,2013-10-22 23:12:00,
2013-10-22 18:17:00,66.7,40.3,30.16,NNW,340,7.0,14.0,38,0.00,,,0.00,meteohub,2013-10-22 23:17:00,
2013-10-22 18:22:00,66.4,39.9,30.17,NNW,346,9.0,13.0,38,0.00,,,0.00,meteohub,2013-10-22 23:22:00,
2013-10-22 18:27:00,66.2,40.5,30.17,WNW,295,5.0,13.0,39,0.00,,,0.00,meteohub,2013-10-22 23:27:00,
2013-10-22 18:32:00,65.8,40.1,30.17,NW,314,4.0,12.0,39,0.00,,,0.00,meteohub,2013-10-22 23:32:00,
2013-10-22 18:37:00,65.5,40.5,30.17,NW,314,3.0,12.0,40,0.00,,,0.00,meteohub,2013-10-22 23:37:00,
2013-10-22 18:42:00,64.9,40.6,30.17,NW,313,5.0,11.0,41,0.00,,,0.00,meteohub,2013-10-22 23:42:00,
2013-10-22 18:47:00,64.8,41.2,30.17,NNW,329,5.0,9.0,42,0.00,,,0.00,meteohub,2013-10-22 23:47:00,
2013-10-22 18:52:00,64.2,40.6,30.17,NW,307,5.0,9.0,42,0.00,,,0.00,meteohub,2013-10-22 23:52:00,
2013-10-22 18:57:00,64.0,41.2,30.18,NW,322,4.0,10.0,43,0.00,,,0.00,meteohub,2013-10-22 23:57:00,
2013-10-22 19:02:00,63.7,40.8,30.18,NW,308,4.0,10.0,43,0.00,,,0.00,meteohub,2013-10-23 00:02:00,
2013-10-22 19:07:00,63.3,41.0,30.18,NNE,29,5.0,10.0,44,0.00,,,0.00,meteohub,2013-10-23 00:07:00,
2013-10-22 19:12:00,63.1,40.8,30.19,NE,34,6.0,9.0,44,0.00,,,0.00,meteohub,2013-10-23 00:12:00,
2013-10-22 19:17:00,63.0,41.4,30.19,NNE,32,7.0,13.0,45,0.00,,,0.00,meteohub,2013-10-23 00:17:00,
2013-10-22 19:22:00,62.6,41.0,30.19,ENE,57,10.0,14.0,45,0.00,,,0.00,meteohub,2013-10-23 00:22:00,
2013-10-22 19:27:00,62.2,41.2,30.19,NNE,29,6.0,14.0,46,0.00,,,0.00,meteohub,2013-10-23 00:27:00,
2013-10-22 19:32:00,61.9,40.8,30.19,NNE,26,4.0,13.0,46,0.00,,,0.00,meteohub,2013-10-23 00:32:00,
2013-10-22 19:37:00,61.5,41.2,30.19,NE,34,6.0,12.0,47,0.00,,,0.00,meteohub,2013-10-23 00:37:00,
2013-10-22 19:42:00,61.3,41.0,30.19,NE,54,8.0,11.0,47,0.00,,,0.00,meteohub,2013-10-23 00:42:00,
2013-10-22 19:47:00,61.0,41.2,30.19,NE,49,7.0,11.0,48,0.00,,,0.00,meteohub,2013-10-23 00:47:00,
2013-10-22 19:52:00,60.4,41.2,30.19,NE,39,7.0,11.0,49,0.00,,,0.00,meteohub,2013-10-23 00:52:00,
2013-10-22 19:57:00,60.3,41.0,30.20,NNE,29,5.0,11.0,49,0.00,,,0.00,meteohub,2013-10-23 00:57:00,
2013-10-22 20:02:00,59.9,41.2,30.20,NE,44,4.0,9.0,50,0.00,,,0.00,meteohub,2013-10-23 01:02:00,
2013-10-22 20:07:00,59.7,41.0,30.20,NE,40,4.0,8.0,50,0.00,,,0.00,meteohub,2013-10-23 01:07:00,
2013-10-22 20:12:00,59.5,40.8,30.20,NNE,32,4.0,6.0,50,0.00,,,0.00,meteohub,2013-10-23 01:12:00,
2013-10-22 20:17:00,59.4,41.2,30.20,NNE,29,3.0,6.0,51,0.00,,,0.00,meteohub,2013-10-23 01:17:00,
2013-10-22 20:22:00,59.2,41.0,30.20,NE,52,2.0,6.0,51,0.00,,,0.00,meteohub,2013-10-23 01:22:00,
2013-10-22 20:27:00,58.8,41.2,30.20,NNW,346,2.0,6.0,52,0.00,,,0.00,meteohub,2013-10-23 01:27:00,
2013-10-22 20:32:00,58.8,41.2,30.21,NW,314,1.0,6.0,52,0.00,,,0.00,meteohub,2013-10-23 01:32:00,
2013-10-22 20:37:00,58.5,40.8,30.21,NW,319,0.0,4.0,52,0.00,,,0.00,meteohub,2013-10-23 01:37:00,
2013-10-22 20:42:00,58.5,41.4,30.21,NW,326,2.0,4.0,53,0.00,,,0.00,meteohub,2013-10-23 01:42:00,
2013-10-22 20:47:00,58.3,41.2,30.21,NW,304,1.0,3.0,53,0.00,,,0.00,meteohub,2013-10-23 01:47:00,
2013-10-22 20:52:00,57.7,41.2,30.21,WNW,290,1.0,3.0,54,0.00,,,0.00,meteohub,2013-10-23 01:52:00,
2013-10-22 20:57:00,57.4,41.4,30.21,WNW,293,2.0,3.0,55,0.00,,,0.00,meteohub,2013-10-23 01:57:00,
2013-10-22 21:02:00,57.4,41.4,30.21,WNW,283,1.0,2.0,55,0.00,,,0.00,meteohub,2013-10-23 02:02:00,
2013-10-22 21:07:00,57.0,41.5,30.21,West,280,2.0,2.0,56,0.00,,,0.00,meteohub,2013-10-23 02:07:00,
2013-10-22 21:12:00,57.0,41.5,30.21,WNW,298,2.0,2.0,56,0.00,,,0.00,meteohub,2013-10-23 02:12:00,
2013-10-22 21:17:00,56.8,41.4,30.21,WNW,297,1.0,2.0,56,0.00,,,0.00,meteohub,2013-10-23 02:17:00,
2013-10-22 21:22:00,56.8,41.4,30.21,WNW,300,2.0,2.0,56,0.00,,,0.00,meteohub,2013-10-23 02:22:00,
2013-10-22 21:27:00,56.7,41.5,30.21,NW,309,1.0,3.0,57,0.00,,,0.00,meteohub,2013-10-23 02:27:00,
2013-10-22 21:32:00,56.5,41.4,30.21,NW,309,1.0,3.0,57,0.00,,,0.00,meteohub,2013-10-23 02:32:00,
2013-10-22 21:37:00,56.1,41.5,30.21,WNW,300,2.0,2.0,58,0.00,,,0.00,meteohub,2013-10-23 02:37:00,
2013-10-22 21:42:00,55.9,41.4,30.21,NW,316,3.0,3.0,58,0.00,,,0.00,meteohub,2013-10-23 02:42:00,
2013-10-22 21:47:00,55.6,41.5,30.22,NNE,12,2.0,4.0,59,0.00,,,0.00,meteohub,2013-10-23 02:47:00,
2013-10-22 21:52:00,55.2,41.2,30.22,NNE,18,2.0,4.0,59,0.00,,,0.00,meteohub,2013-10-23 02:52:00,
2013-10-22 21:57:00,55.0,41.4,30.22,North,358,4.0,4.0,60,0.00,,,0.00,meteohub,2013-10-23 02:57:00,
2013-10-22 22:02:00,54.7,41.5,30.22,NW,321,2.0,4.0,61,0.00,,,0.00,meteohub,2013-10-23 03:02:00,
2013-10-22 22:07:00,54.5,41.4,30.22,NNE,23,3.0,4.0,61,0.00,,,0.00,meteohub,2013-10-23 03:07:00,
2013-10-22 22:12:00,54.3,41.2,30.23,NNW,338,2.0,4.0,61,0.00,,,0.00,meteohub,2013-10-23 03:12:00,
2013-10-22 22:17:00,54.3,41.2,30.23,North,359,3.0,4.0,61,0.00,,,0.00,meteohub,2013-10-23 03:17:00,
2013-10-22 22:22:00,54.1,41.4,30.23,NNW,347,2.0,5.0,62,0.00,,,0.00,meteohub,2013-10-23 03:22:00,
2013-10-22 22:27:00,54.0,41.2,30.23,NNW,347,3.0,5.0,62,0.00,,,0.00,meteohub,2013-10-23 03:27:00,
2013-10-22 22:32:00,53.6,41.7,30.24,NNW,329,4.0,5.0,64,0.00,,,0.00,meteohub,2013-10-23 03:32:00,
2013-10-22 22:37:00,53.4,41.5,30.24,NNW,340,4.0,5.0,64,0.00,,,0.00,meteohub,2013-10-23 03:37:00,
2013-10-22 22:42:00,53.2,41.4,30.24,NNE,12,4.0,6.0,64,0.00,,,0.00,meteohub,2013-10-23 03:42:00,
2013-10-22 22:47:00,53.2,41.4,30.24,North,1,5.0,6.0,64,0.00,,,0.00,meteohub,2013-10-23 03:47:00,
2013-10-22 22:52:00,52.9,41.4,30.25,NNE,15,4.0,6.0,65,0.00,,,0.00,meteohub,2013-10-23 03:52:00,
2013-10-22 22:57:00,52.9,41.4,30.25,NNE,29,5.0,6.0,65,0.00,,,0.00,meteohub,2013-10-23 03:57:00,
2013-10-22 23:01:00,52.9,41.4,30.25,ENE,65,4.0,8.0,65,0.00,,,0.00,meteohub,2013-10-23 04:01:00,
2013-10-22 23:02:00,52.9,41.4,30.25,NE,48,6.0,8.0,65,0.00,,,0.00,meteohub,2013-10-23 04:02:00,
2013-10-22 23:03:00,52.9,41.0,30.25,NNE,23,4.0,8.0,64,0.00,,,0.00,meteohub,2013-10-23 04:03:00,
2013-10-22 23:08:00,52.7,40.8,30.25,NE,51,9.0,9.0,64,0.00,,,0.00,meteohub,2013-10-23 04:08:00,
2013-10-22 23:13:00,52.5,40.6,30.25,ENE,57,8.0,10.0,64,0.00,,,0.00,meteohub,2013-10-23 04:13:00,
2013-10-22 23:18:00,52.5,40.6,30.25,NE,53,14.0,14.0,64,0.00,,,0.00,meteohub,2013-10-23 04:18:00,
2013-10-22 23:23:00,52.3,40.1,30.25,ENE,57,20.0,20.0,63,0.00,,,0.00,meteohub,2013-10-23 04:23:00,
2013-10-22 23:28:00,52.3,40.1,30.26,NE,47,13.0,22.0,63,0.00,,,0.00,meteohub,2013-10-23 04:28:00,
2013-10-22 23:33:00,52.0,40.1,30.26,NE,55,14.0,22.0,64,0.00,,,0.00,meteohub,2013-10-23 04:33:00,
2013-10-22 23:38:00,51.6,39.4,30.26,NE,43,9.0,22.0,63,0.00,,,0.00,meteohub,2013-10-23 04:38:00,
2013-10-22 23:43:00,51.3,39.0,30.26,ENE,64,17.0,21.0,63,0.00,,,0.00,meteohub,2013-10-23 04:43:00,
2013-10-22 23:48:00,51.1,38.8,30.27,East,83,9.0,20.0,63,0.00,,,0.00,meteohub,2013-10-23 04:48:00,
2013-10-22 23:53:00,50.7,38.7,30.26,East,80,15.0,20.0,63,0.00,,,0.00,meteohub,2013-10-23 04:53:00,
2013-10-22 23:58:00,50.5,38.5,30.26,NE,49,9.0,20.0,63,0.00,,,0.00,meteohub,2013-10-23 04:58:00,